Flag for United Kingdom Weather past 2 weeks in Silverstone, England, United Kingdom

Now
52 °F

Passing clouds.


Feels Like: 48 °F
Forecast: 37 / 61 °F
Wind: 10 mph from Northeast

Location: Cranfield

Current Time: Apr 21, 2015 at 10:16:18 AM

Latest Report: Apr 21, 2015 at 9:50 AM


Visibility: N/A

Pressure: 30.57 "Hg

Humidity: 72%

Dew point: 43 °F

Location of SilverstoneLocation

Historic Weather in Silverstone — Graph

°F

Silverstone temperature yesterday

Maximum temperature yesterday: 63 °F (at 3:50 PM)
Minimum temperature yesterday: 36 °F (at 7:20 AM)
Average temperature yesterday: 54 °F

Past Weeks' High & Low Weather Summary

 TemperatureHumidityPressure
High70 °F (Apr 15, 12:50 PM)100% (Apr 7, 7:50 AM)30.63 "Hg (Apr 7, 7:50 AM)
Low36 °F (Apr 13, 7:20 AM)33% (Apr 10, 3:20 PM)29.86 "Hg (Apr 11, 8:50 AM)
Average55 °F67%30.26 "Hg
* Reported Apr 6 9:20 AM — Apr 21 9:20 AM, Silverstone, Weather by CustomWeather, © 2015

Note: Actual official high and low records may vary slightly from our data, if they occured in-between our weather recording intervals... More about our weather records

Advertising

Silverstone weather history for previous 24 hours

 ConditionsComfort  
Time TempWeatherWind HumidityBarometerVisibility
9:20 AM
Tue, Apr 21
50 °FSunny.9 mph76%30.57 "Hg10 mi
8:50 AM48 °FSunny.8 mph82%30.57 "Hg10 mi
8:20 AM46 °FSunny.8 mph82%30.54 "Hg10 mi
7:50 AM43 °FSunny.6 mph87%30.54 "Hg10 mi
5:50 PM
Mon, Apr 20
63 °FPassing clouds.7 mph49%30.42 "HgN/A
5:20 PM63 °FPassing clouds.7 mph49%30.42 "HgN/A
4:50 PM63 °FPassing clouds.9 mph49%30.42 "HgN/A
4:20 PM63 °FPassing clouds.8 mph49%30.42 "HgN/A
3:50 PM63 °FPassing clouds.10 mph49%30.42 "HgN/A
3:20 PM61 °FPassing clouds.9 mph55%30.42 "HgN/A
2:50 PM61 °FPassing clouds.10 mph48%30.45 "HgN/A
2:20 PM59 °FPassing clouds.9 mph51%30.45 "HgN/A
1:50 PM59 °FPassing clouds.12 mph51%30.45 "HgN/A
1:20 PM59 °FPassing clouds.13 mph55%30.42 "HgN/A
12:50 PM57 °FPassing clouds.12 mph63%30.45 "HgN/A
12:20 PM57 °FPassing clouds.10 mph63%30.45 "HgN/A
11:50 AM55 °FPassing clouds.12 mph63%30.42 "HgN/A
11:20 AM54 °FSunny.12 mph67%30.42 "Hg10 mi
10:50 AM52 °FSunny.12 mph72%30.42 "Hg10 mi
10:20 AM50 °FSunny.10 mph76%30.42 "Hg10 mi
Weather by CustomWeather, © 2015

See weather overviewHow to use our weather pages